Regional Weather Roundup
Issued by NWS

Home | Current Version | Previous Version | Text Only | Print | Product List | Glossary On
Versions: 1 2 3 4 5 6 7 8 9 10 11 12 13 14 15 16 17 18 19 20 21 22 23 24 25 26 27 28 29 30 31 32 33 34 35 36 37 38 39 40 41 42 43 44 45 46 47 48 49 50
000
ASUS45 KREV 210810
RWRNV
NEVADA REGIONAL WEATHER ROUNDUP
NATIONAL WEATHER SERVICE RENO NV
100 AM PDT FRI JUL 21 2017

NOTE: "FAIR" INDICATES FEW OR NO CLOUDS BELOW 12,000 FEET WITH NO
SIGNIFICANT WEATHER AND/OR OBSTRUCTIONS TO VISIBILITY.

NVZ001-003-004-210900-
WESTERN NEVADA

CITY           SKY/WX    TMP DP  RH WIND       PRES   REMARKS
RENO           CLEAR     71  34  25 NW5       30.15R
CARSON CITY    FAIR      59  32  36 NW6       30.16S
MINDEN         FAIR      48  36  61 MISG      30.17R
FALLON         CLEAR     71  30  21 CALM      30.08R
LOVELOCK       CLEAR     74  33  22 CALM      30.06R
HAWTHORNE      MOCLDY    73  32  21 W5        30.09S
$$

NVZ002-CAZ072-073-210900-
NORTHERN AND CENTRAL SIERRA

CITY           SKY/WX    TMP DP  RH WIND       PRES   REMARKS
S. LAKE TAHOE  CLEAR     46  35  65 S5        30.27S
TRUCKEE        CLEAR     43  34  70 CALM      30.27S
SQUAW VLY 8000   N/A     52  16  24 W2          N/A
MAMMOTH LAKES  FAIR      58  31  35 W9        30.30S
BRIDGEPORT     FAIR      50  29  44 CALM      30.28R
$$

NVZ030-031-036-210900-
NORTHERN NEVADA

CITY           SKY/WX    TMP DP  RH WIND       PRES   REMARKS
ELKO           CLEAR     64  22  20 CALM      30.12R
WINNEMUCCA     NOT AVBL
WENDOVER       PTCLDY    78  45  30 NE7       30.00F
$$

NVZ035-037-210900-
CENTRAL NEVADA

CITY           SKY/WX    TMP DP  RH WIND       PRES   REMARKS
ELY            PTCLDY    60  53  77 S8        30.20S
EUREKA           N/A     55  26  32 S6        30.18S
$$

NVZ013-014-210900-
SOUTH CENTRAL NEVADA

CITY           SKY/WX    TMP DP  RH WIND       PRES   REMARKS
TONOPAH        CLEAR     65  21  18 CALM      30.14S
$$

NVZ017-020-022-210900-
SOUTHERN NEVADA

CITY           SKY/WX    TMP DP  RH WIND       PRES   REMARKS
LAS VEGAS      MOCLDY    89  56  32 S7        29.87F
N. LAS VEGAS   PTCLDY    89  54  30 S7        29.87S
NELLIS AFB     PTCLDY    92  55  28 CALM      29.85F
HENDERSON      PTCLDY   N/A N/A N/A S10       29.92S
MERCURY        CLEAR     78  24  13 NE6       29.96F
$$



USA.gov is the U.S. government's official web portal to all federal, state and local government web resources and services.